{"data":{"norad_id":37224,"epoch":"2026-05-25T05:23:36.632256Z","epoch_age_seconds":45783,"freshness":"FRESH","line1":"1 37224U 10062C   26145.22472954  .00001854  00000+0  18117-3 0  9998","line2":"2 37224  71.9680 132.3481 0012526 113.5337 246.7151 14.93628135113218","mean_motion":14.93628135,"eccentricity":0.0012526,"inclination_deg":71.968,"raan_deg":132.3481,"arg_perigee_deg":113.5337,"mean_anomaly_deg":246.7151,"bstar":0.00018117,"rev_number":11321,"period_min":96.409539045005,"perigee_km":577.9100779157,"apogee_km":595.35822260133,"semimajor_km":6964.7711502585,"source":"CELESTRAK","updated_at":"2026-05-25T13:38:23.284434Z"}}